Location: Conjunto Santa Maria
(19.9513°S, 43.9599°W)
Time: 12:02:47
(UTC+00:00)

Meteor 2-21 Rocket - Pass Details

Date: 21 January 2021
Orbit: 936 x 967 km, 82.6° (Epoch: 03 March)

Event Time Altitude Azimuth Distance (km) Brightness Sun altitude
Rises 22:40:37 0° 183° (S) 3,620 7.9 -13.6°
Reaches altitude 10° 22:43:07 10° 182° (S) 2,668 7.2 -14.1°
Maximum altitude 22:49:13 80° 95° (E) 956 4.4 -15.4°
Drops below altitude 10° 22:55:15 10° 7° (N) 2,638 6.4 -16.6°
Enters shadow 22:56:02 - 7° (N) 2,935 6.7 -16.8°
